[[{"header":{"parameterUnit":"m.s-1","parameterCategory":1,"la1":30.2991,"la2":30.254,"lo1":-89.0895,"lo2":-89.0444,"dy":0.0017,"dx":0.0017,"nx":28,"ny":28,"refTime":"2023-10-15T03:00:00:Z","depth":0,"parameterNumber":2,"parameterNumberName":"U-component_of_WINDS"},"data":[0,0,0,0,0,0,0,0,0,0,0,0,0,0,0,0,0,0,0,0,0,0,0,0,0,0,0,0,0,0,0,0,0,0,0,0,0,0,0,0,0,0,0,0,0,0,0,0,0,0,0,0,0,0,0,0,0,0,1.8561,1.8561,0,1.8571,1.8571,1.8571,1.8559,1.8558,1.8558,1.8557,1.8568,1.8569,1.857,0,0,0,0,0,0,0,0,0,0,0,0,0,1.8531,1.8531,1.8561,1.8561,1.8561,1.8571,1.8571,1.8571,1.8559,1.8558,1.8558,1.8557,1.8568,1.8569,1.857,0,0,0,0,0,0,0,0,0,0,0,0,0,1.8543,1.8531,1.8561,1.8556,1.8556,1.8571,1.8571,1.8572,1.8559,1.8558,1.8558,1.8557,1.8568,1.8569,1.857,1.859,0,0,1.8573,1.8573,0,0,0,0,0,0,0,0,1.8542,1.8544,1.8556,1.8556,1.8556,1.8563,1.8565,1.8578,1.8559,1.8558,1.8557,1.8557,1.8567,1.8568,1.8572,1.8591,1.8591,1.8573,1.8574,1.8574,1.8575,0,0,0,0,0,0,0,1.8541,1.8543,1.8565,1.8557,1.8556,1.8554,1.8555,1.8567,1.8566,1.8558,1.8557,1.8558,1.8567,1.8571,1.8572,1.8592,1.8573,1.8574,1.8575,1.8575,1.863,1.863,0,0,0,0,0,0,1.8541,1.8543,1.8564,1.8565,1.8547,1.8555,1.8556,1.8561,1.8566,1.8566,1.8559,1.8558,1.8569,1.857,1.8572,1.8597,1.8574,1.8575,1.8576,1.8629,1.863,1.8631,0,0,0,0,0,0,1.854,1.8543,1.8564,1.8554,1.8556,1.8556,1.8562,1.8562,1.8566,1.8567,1.8567,1.8563,1.8569,1.8571,1.8586,1.8597,1.8576,1.8577,1.8628,1.8629,1.863,1.8647,0,0,0,0,0,0,1.8539,1.8543,1.855,1.8554,1.8557,1.8578,1.8563,1.8563,1.8568,1.8566,1.8571,1.8571,1.8568,1.8585,1.8587,1.8598,1.8578,1.8627,1.8628,1.863,1.8645,1.8648,1.8651,0,0,0,0,0,1.8538,1.8554,1.8551,1.8553,1.8566,1.8578,1.858,1.8577,1.8569,1.8576,1.8577,1.857,1.8596,1.8586,1.8589,1.8601,1.8626,1.8628,1.863,1.8644,1.8648,1.8651,0,0,0,0,0,0,1.8551,1.8554,1.855,1.8568,1.8573,1.8576,1.8585,1.8581,1.8588,1.8586,1.8582,1.8584,1.86,1.8602,1.8592,1.8622,1.861,1.8612,1.8619,1.8623,1.8626,1.8625,1.8578,0,0,0,0,0,1.8556,1.8565,1.8568,1.8583,1.8586,1.8585,1.8591,1.8588,1.8593,1.8595,1.8597,1.8602,1.8612,1.8618,1.8626,1.8646,1.8647,1.8655,1.8658,1.8661,1.8662,1.8674,1.8678,1.8637,1.8637,1.8637,0,0,1.8566,1.8569,1.8575,1.8586,1.8589,1.8599,1.8587,1.8598,1.8606,1.8597,1.8611,1.8614,1.8619,1.8637,1.8645,1.8639,1.8674,1.8663,1.8665,1.8665,1.8676,1.868,1.8683,1.8638,1.8638,1.8637,0,0,1.8589,1.8592,1.8605,1.861,1.8616,1.8616,1.8619,1.8623,1.8624,1.8639,1.8633,1.8643,1.8658,1.8663,1.8667,1.8695,1.8689,1.8698,1.8712,1.8723,1.8727,1.8729,1.8739,1.8743,1.87,1.87,1.87,0,1.86,1.8615,1.8613,1.8624,1.863,1.8623,1.8636,1.8641,1.8649,1.8653,1.8647,1.8667,1.8671,1.869,1.8697,1.8701,1.8705,1.8696,1.8726,1.8729,1.8732,1.8741,1.8745,1.8701,1.8701,1.8701,1.8701,0,1.8629,1.864,1.865,1.8658,1.8665,1.8678,1.8678,1.8685,1.8682,1.8683,1.8699,1.8704,1.8713,1.8718,1.8715,1.8737,1.8734,1.8727,1.8715,1.8737,1.8745,1.8749,1.8702,1.8702,1.8702,1.8701,0,0,1.8658,1.8667,1.867,1.8675,1.8682,1.869,1.8704,1.8713,1.8719,1.8726,1.8737,1.8752,1.8746,1.8751,1.875,1.876,1.8781,1.8752,1.8752,1.8757,1.8806,1.881,1.8814,1.8778,1.8779,1.8779,1.8805,0,1.8681,1.8703,1.8702,1.8723,1.8733,1.8728,1.874,1.8746,1.8748,1.8757,1.8759,1.877,1.8761,1.8765,1.8774,1.8777,1.8791,1.8775,1.8788,1.8789,1.8786,1.8819,1.8823,1.8847,1.8809,1.8809,1.881,0,1.871,1.8718,1.874,1.8747,1.8751,1.8762,1.8771,1.878,1.8788,1.8788,1.8795,1.8792,1.8806,1.8795,1.8815,1.8804,1.881,1.8812,1.8813,1.8813,1.88,1.8819,1.8855,1.8858,1.8815,1.8815,1.8814,0,1.8728,1.8745,1.8761,1.8765,1.8773,1.8781,1.8785,1.8792,1.8798,1.8807,1.8811,1.8821,1.8827,1.8835,1.8836,1.8827,1.8855,1.8844,1.8856,1.8856,1.8861,1.8861,1.8897,1.8867,1.8867,1.8866,1.8866,0,1.8753,1.8767,1.8769,1.8779,1.8794,1.8794,1.881,1.8813,1.882,1.883,1.8827,1.8837,1.8837,1.8848,1.8848,1.8864,1.8867,1.8868,1.8868,1.8868,1.8867,1.887,1.8868,1.8867,1.8867,1.8867,1.8867,0,1.8775,1.8778,1.8795,1.8802,1.8804,1.8815,1.8822,1.8831,1.8834,1.8847,1.885,1.8854,1.8866,1.8868,1.8882,1.8883,1.8902,1.8901,1.89,1.8899,1.8911,1.891,1.895,1.8956,1.8922,1.8923,1.8923,0,1.8791,1.8801,1.881,1.8817,1.8822,1.8833,1.884,1.8841,1.8848,1.8858,1.8867,1.8879,1.8888,1.8909,1.8913,1.8924,1.8922,1.8936,1.8924,1.8924,1.8922,1.8921,1.8922,1.8938,1.8938,1.8938,1.8938,0,1.8817,1.8818,1.8828,1.8839,1.8848,1.8857,1.8865,1.8871,1.8873,1.8882,1.8895,1.8902,1.8918,1.893,1.8941,1.8946,1.8943,1.8943,1.8946,1.8945,1.8944,1.8945,1.8905,1.8941,1.8941,1.8941,1.8941,1.894,1.8836,1.8845,1.8854,1.8865,1.8872,1.888,1.889,1.8894,1.8905,1.8917,1.8918,1.8932,1.894,1.8956,1.8961,1.8973,1.8968,1.8973,1.8974,1.8975,1.8976,1.8943,1.8975,1.8975,1.8975,1.8975,1.8975,0,1.8862,1.8867,1.8878,1.889,1.89,1.8897,1.8907,1.8915,1.8928,1.8936,1.8946,1.8961,1.8974,1.898,1.8992,1.9,1.8999,1.9003,1.9002,1.9003,1.8979,1.8975,1.9004,1.9004,1.9004,1.9004,1.9004,1.9004,1.8876,1.8892,1.8895,1.8915,1.892,1.8934,1.894,1.8948,1.8955,1.8972,1.8982,1.8987,1.8994,1.9008,1.9019,1.9021,1.9025,1.903,1.9031,1.9008,1.9005,1.9002,1.8998,1.9031,1.9031,1.9053,1.9054,1.9054]},{"header":{"parameterUnit":"m.s-1","parameterCategory":1,"la1":30.2991,"la2":30.254,"lo1":-89.0895,"lo2":-89.0444,"dy":0.0017,"dx":0.0017,"nx":28,"ny":28,"refTime":"2023-10-15T03:00:00:Z","depth":0,"parameterNumber":3,"parameterNumberName":"V-component_of_WINDS"},"data":[0,0,0,0,0,0,0,0,0,0,0,0,0,0,0,0,0,0,0,0,0,0,0,0,0,0,0,0,0,0,0,0,0,0,0,0,0,0,0,0,0,0,0,0,0,0,0,0,0,0,0,0,0,0,0,0,0,0,-7.2282,-7.2284,0,-7.2466,-7.2468,-7.247,-7.2383,-7.2378,-7.2373,-7.2369,-7.255,-7.2558,-7.2567,0,0,0,0,0,0,0,0,0,0,0,0,0,-7.1851,-7.1859,-7.2282,-7.2284,-7.2287,-7.2465,-7.2468,-7.247,-7.2383,-7.2378,-7.2372,-7.2367,-7.2547,-7.2557,-7.2568,0,0,0,0,0,0,0,0,0,0,0,0,0,-7.2037,-7.1862,-7.2282,-7.2265,-7.2265,-7.2465,-7.2468,-7.2471,-7.2385,-7.2378,-7.2371,-7.2364,-7.2543,-7.2556,-7.257,-7.2794,0,0,-7.2612,-7.2618,0,0,0,0,0,0,0,0,-7.2026,-7.2052,-7.2265,-7.2267,-7.2267,-7.2394,-7.2382,-7.2579,-7.2386,-7.2339,-7.2369,-7.2361,-7.2503,-7.252,-7.2569,-7.2802,-7.281,-7.2613,-7.2621,-7.2627,-7.2631,0,0,0,0,0,0,0,-7.2013,-7.2044,-7.2354,-7.2268,-7.227,-7.2246,-7.2265,-7.2419,-7.2458,-7.2343,-7.2337,-7.236,-7.2502,-7.2556,-7.2573,-7.2813,-7.2613,-7.2625,-7.2633,-7.2639,-7.324,-7.3248,0,0,0,0,0,0,-7.2002,-7.2034,-7.2349,-7.236,-7.2127,-7.226,-7.2281,-7.236,-7.2456,-7.2464,-7.2366,-7.2355,-7.2536,-7.2557,-7.2579,-7.2849,-7.2627,-7.264,-7.2648,-7.3232,-7.3242,-7.325,0,0,0,0,0,0,-7.1993,-7.2031,-7.2341,-7.2196,-7.2233,-7.2275,-7.2365,-7.2368,-7.2421,-7.2473,-7.2479,-7.2414,-7.2531,-7.2559,-7.2742,-7.2854,-7.2646,-7.2659,-7.3223,-7.3235,-7.3246,-7.339,0,0,0,0,0,0,-7.1981,-7.2028,-7.2115,-7.2198,-7.2242,-7.2504,-7.2372,-7.2376,-7.2446,-7.2434,-7.252,-7.2528,-7.2528,-7.2722,-7.2756,-7.2869,-7.2669,-7.3213,-7.3229,-7.3242,-7.3375,-7.3405,-7.343,0,0,0,0,0,-7.1966,-7.2147,-7.212,-7.2159,-7.2351,-7.251,-7.2535,-7.2533,-7.2456,-7.2543,-7.2576,-7.2525,-7.2836,-7.2741,-7.2778,-7.2897,-7.3206,-7.3224,-7.3241,-7.3363,-7.3399,-7.343,0,0,0,0,0,0,-7.2073,-7.2157,-7.2129,-7.2342,-7.242,-7.2495,-7.2605,-7.2571,-7.2671,-7.2656,-7.2647,-7.2668,-7.2857,-7.2895,-7.2788,-7.312,-7.3009,-7.3035,-7.3089,-7.3123,-7.315,-7.3138,-7.2681,0,0,0,0,0,-7.2122,-7.2246,-7.2311,-7.2493,-7.2534,-7.2564,-7.2632,-7.2625,-7.2704,-7.2736,-7.2783,-7.286,-7.2975,-7.3051,-7.3159,-7.338,-7.3397,-7.348,-7.3507,-7.353,-7.3552,-7.3673,-7.371,-7.3308,-7.3307,-7.3307,0,0,-7.2223,-7.2284,-7.2362,-7.2516,-7.2576,-7.2703,-7.2592,-7.273,-7.2824,-7.2756,-7.2933,-7.297,-7.3055,-7.3259,-7.335,-7.3296,-7.3667,-7.3552,-7.3569,-7.358,-7.3694,-7.3733,-7.3766,-7.3319,-7.3317,-7.3315,0,0,-7.2473,-7.2532,-7.2691,-7.2753,-7.2846,-7.2864,-7.2903,-7.2984,-7.3007,-7.3184,-7.3137,-7.3247,-7.3445,-7.3509,-7.3567,-7.3843,-7.3799,-7.3878,-7.4022,-7.4139,-7.4171,-7.4199,-7.4298,-7.4334,-7.39,-7.39,-7.39,0,-7.2586,-7.2779,-7.2775,-7.292,-7.2989,-7.2936,-7.3096,-7.3156,-7.3278,-7.3327,-7.3264,-7.3514,-7.3567,-7.3785,-7.3853,-7.3901,-7.3944,-7.3868,-7.4167,-7.4195,-7.4221,-7.4316,-7.4353,-7.3909,-7.3908,-7.3907,-7.3906,0,-7.2914,-7.3048,-7.3165,-7.3288,-7.337,-7.3521,-7.354,-7.3622,-7.3608,-7.3632,-7.3814,-7.3876,-7.3998,-7.4048,-7.4034,-7.4265,-7.4228,-7.4167,-7.4055,-7.4269,-7.4358,-7.4394,-7.3922,-7.3919,-7.3916,-7.3914,0,0,-7.3236,-7.3358,-7.3401,-7.3457,-7.3556,-7.3658,-7.3806,-7.3928,-7.3999,-7.4085,-7.4209,-7.4379,-7.4324,-7.439,-7.4382,-7.4485,-7.4701,-7.4411,-7.4413,-7.4464,-7.496,-7.5007,-7.5049,-7.4673,-7.468,-7.4685,-7.4953,0,-7.3495,-7.3758,-7.376,-7.4001,-7.4125,-7.4077,-7.4206,-7.428,-7.4307,-7.4414,-7.4442,-7.4564,-7.4481,-7.4521,-7.462,-7.4654,-7.4801,-7.4634,-7.4787,-7.4793,-7.4769,-7.5095,-7.5145,-7.5395,-7.4988,-7.4994,-7.4998,0,-7.3831,-7.3932,-7.4187,-7.4269,-7.4321,-7.4438,-7.455,-7.4653,-7.4736,-7.4748,-7.4823,-7.48,-7.495,-7.4834,-7.504,-7.4926,-7.4989,-7.5015,-7.5024,-7.5039,-7.4909,-7.512,-7.5474,-7.5512,-7.5052,-7.5048,-7.5044,0,-7.4043,-7.4241,-7.442,-7.4469,-7.4569,-7.4653,-7.4698,-7.4774,-7.4847,-7.4944,-7.4991,-7.5103,-7.5164,-7.5251,-7.5258,-7.5173,-7.5466,-7.535,-7.548,-7.548,-7.5545,-7.5541,-7.5915,-7.5583,-7.5583,-7.5582,-7.5581,0,-7.4331,-7.4489,-7.4517,-7.4627,-7.4802,-7.4802,-7.4975,-7.5013,-7.5081,-7.5196,-7.516,-7.5268,-7.5271,-7.5381,-7.5388,-7.5558,-7.5585,-7.5599,-7.5599,-7.5603,-7.5602,-7.5645,-7.5628,-7.5592,-7.559,-7.5588,-7.5586,0,-7.4597,-7.4622,-7.4814,-7.4894,-7.4918,-7.5044,-7.5112,-7.5216,-7.524,-7.5386,-7.542,-7.5457,-7.5586,-7.5602,-7.575,-7.5754,-7.596,-7.5941,-7.5934,-7.5931,-7.6061,-7.6049,-7.6477,-7.6533,-7.6163,-7.6167,-7.617,0,-7.4781,-7.4902,-7.4996,-7.5072,-7.5123,-7.5245,-7.5321,-7.5325,-7.5405,-7.5509,-7.5601,-7.5726,-7.5827,-7.6034,-7.6072,-7.6186,-7.617,-7.6312,-7.6187,-7.6188,-7.6174,-7.6167,-7.618,-7.6337,-7.6341,-7.6344,-7.6347,0,-7.5104,-7.5111,-7.5222,-7.534,-7.5431,-7.5523,-7.5608,-7.5672,-7.5687,-7.5778,-7.5911,-7.5989,-7.6143,-7.6268,-7.638,-7.6424,-7.6389,-7.6386,-7.6422,-7.6429,-7.642,-7.6428,-7.6001,-7.6376,-7.6373,-7.6371,-7.637,-7.6368,-7.5335,-7.5441,-7.5525,-7.5651,-7.5717,-7.5798,-7.5901,-7.5939,-7.605,-7.6178,-7.6172,-7.6319,-7.6398,-7.6546,-7.6599,-7.6712,-7.6664,-7.6717,-7.673,-7.6744,-7.6758,-7.6402,-7.6732,-7.6731,-7.673,-7.6729,-7.6729,0,-7.5658,-7.571,-7.5826,-7.5949,-7.6048,-7.6008,-7.6101,-7.6186,-7.6316,-7.6394,-7.6495,-7.6648,-7.6769,-7.6818,-7.6936,-7.7018,-7.7004,-7.7049,-7.7043,-7.7054,-7.6792,-7.675,-7.7058,-7.7058,-7.7057,-7.7057,-7.7057,-7.7057,-7.5838,-7.6016,-7.6033,-7.6243,-7.6292,-7.6438,-7.6495,-7.6569,-7.6632,-7.6805,-7.6907,-7.6939,-7.7006,-7.7129,-7.7238,-7.7249,-7.7295,-7.7347,-7.7351,-7.7105,-7.7072,-7.7041,-7.7001,-7.7357,-7.7357,-7.7604,-7.7606,-7.7608]}]]